Back to catalog

COSMOS 2429

AliveNavigationPO
NORAD 32052·PAYLOAD·🇷🇺 Russia

Launched Sep 11, 2007 from Plesetsk Cosmodrome

Loading…

Next Passes (next 24 hours)

TLE

FreshSource: Space-Track

Epoch: Sep 14, 2026, 09:46 UTC

1 32052U 07038A   26257.40695141  .00000054  00000-0  40667-4 0  9998
2 32052  82.9817 140.1494 0038204 348.2988  11.7276 13.75173906953914

Track COSMOS 2429 in real time with AllMySat

Download on the App Store